"Pseudo-MPEC" for ABC0164

Created 2026 Sep 5 9:35:03 UT using Find_Orb

Click here for an explanation of pseudo-MPECs

 
 Astrometry: 
     ABC0164*KB2026 09 03.84613 20 21 02.26 +10 46 40.0    ~94FK 19.7 GXNEOCP122
     ABC0164 KB2026 09 03.85098 20 21 01.57 +10 46 35.6    ~94FK 20.1 GXNEOCP122
     ABC0164 KB2026 09 03.85669 20 21 00.85 +10 46 32.0    ~94FK 19.8 GXNEOCP122

Station data:
(122) Pises Observatory  (N44.039539 E3.503500)  France. 0.40-m f/4.7
   reflector.

Orbital elements:  ABC0164
   Perihelion 2027 Jan 29.789840 +/- 173 TT = 18:57:22.2 (JD 2461435.289840)
Epoch 2026 Sep  4.0 TT = JDT 2461287.5   Earth MOID: 0.0556   Me: 0.0029
M 246.576744366 +/- 100             Ma: 0.0881                   AutoNEOCP
n   0.767463145 +/- 0.446           Peri.  216.632671 +/- 41
a   1.181492665 +/- 0.458           Node   277.671520 +/- 54
e   0.77594247 +/- 0.222            Incl.   19.860487 +/- 55
P   1.284/469.069d         H 17.70  G  0.15   U 12.2  SR
q 0.264722326 +/- 0.734    Q 2.098263004 +/- 18.5         (J2000 ecliptic)
From 3 observations 2026 Sept. 3 (15.2 min); mean residual 0".32
Residuals in arcseconds: 
260903 122  .23+  .26+    260903 122  .42-  .48-    260903 122  .19+  .22+    

Ephemerides (geocentric):
Date (UTC) HH   RA             Dec           delta  r     elong  mag " sig PA
---- --------  ------------   ------------  ------ ------ -----  --- --------
2026 09 05 10  20 17 40.322   +10 26 41.38  1.0222 1.8897 137.1 20.2  640  99
2026 09 05 11  20 17 35.064   +10 26 09.02  1.0223 1.8894 137.0 20.2  657  99
2026 09 05 12  20 17 29.810   +10 25 36.65  1.0224 1.8892 137.0 20.2  675  99
2026 09 05 13  20 17 24.562   +10 25 04.25  1.0225 1.8890 136.9 20.2  693  99
2026 09 05 14  20 17 19.318   +10 24 31.83  1.0226 1.8888 136.9 20.2  710  99
2026 09 05 15  20 17 14.080   +10 23 59.39  1.0227 1.8886 136.9 20.2  728  99
2026 09 05 16  20 17 08.847   +10 23 26.93  1.0228 1.8884 136.8 20.2  745  99
2026 09 05 17  20 17 03.619   +10 22 54.45  1.0229 1.8882 136.8 20.2  763  99
2026 09 05 18  20 16 58.396   +10 22 21.95  1.0230 1.8880 136.7 20.2  781  99
2026 09 05 19  20 16 53.178   +10 21 49.43  1.0231 1.8878 136.7 20.2  799  99
2026 09 05 20  20 16 47.965   +10 21 16.89  1.0232 1.8876 136.6 20.2  816  99
2026 09 05 21  20 16 42.757   +10 20 44.32  1.0233 1.8874 136.6 20.2  834  99
2026 09 05 22  20 16 37.554   +10 20 11.74  1.0234 1.8872 136.5 20.2  852  99
2026 09 05 23  20 16 32.357   +10 19 39.13  1.0235 1.8870 136.5 20.2  870  99
2026 09 06 00  20 16 27.165   +10 19 06.51  1.0236 1.8868 136.4 20.2  888  99
2026 09 06 01  20 16 21.977   +10 18 33.86  1.0238 1.8866 136.4 20.2  906  99
2026 09 06 02  20 16 16.795   +10 18 01.20  1.0239 1.8864 136.4 20.2  924  99
2026 09 06 03  20 16 11.618   +10 17 28.51  1.0240 1.8862 136.3 20.2  942  99
2026 09 06 04  20 16 06.447   +10 16 55.81  1.0241 1.8860 136.3 20.2  960 100
2026 09 06 05  20 16 01.280   +10 16 23.08  1.0242 1.8858 136.2 20.2  978 100
2026 09 06 06  20 15 56.118   +10 15 50.34  1.0243 1.8856 136.2 20.2  996 100
2026 09 06 07  20 15 50.962   +10 15 17.58  1.0244 1.8854 136.1 20.2 1015 100
2026 09 06 08  20 15 45.811   +10 14 44.79  1.0245 1.8852 136.1 20.2 1033 100
2026 09 06 09  20 15 40.665   +10 14 11.99  1.0246 1.8849 136.0 20.2 1051 100
2026 09 06 10  20 15 35.524   +10 13 39.17  1.0248 1.8847 136.0 20.2 1070 100
2026 09 06 11  20 15 30.389   +10 13 06.33  1.0249 1.8845 136.0 20.2 1088 100
2026 09 06 12  20 15 25.259   +10 12 33.46  1.0250 1.8843 135.9 20.2 1107 100
2026 09 06 13  20 15 20.134   +10 12 00.58  1.0251 1.8841 135.9 20.2 1125 100
2026 09 06 14  20 15 15.014   +10 11 27.69  1.0252 1.8839 135.8 20.2 1144 100
2026 09 06 15  20 15 09.899   +10 10 54.77  1.0253 1.8837 135.8 20.2 1162 100
2026 09 06 16  20 15 04.790   +10 10 21.83  1.0254 1.8835 135.7 20.2 1181 100
2026 09 06 17  20 14 59.686   +10 09 48.87  1.0255 1.8833 135.7 20.2 1200 100
2026 09 06 18  20 14 54.587   +10 09 15.90  1.0257 1.8831 135.6 20.2 1218 100
2026 09 06 19  20 14 49.493   +10 08 42.91  1.0258 1.8829 135.6 20.2 1237 101
2026 09 06 20  20 14 44.405   +10 08 09.90  1.0259 1.8827 135.5 20.2 1256 101
2026 09 06 21  20 14 39.322   +10 07 36.87  1.0260 1.8825 135.5 20.2 1275 101
2026 09 06 22  20 14 34.244   +10 07 03.82  1.0261 1.8823 135.5 20.2 1294 101
2026 09 06 23  20 14 29.172   +10 06 30.75  1.0262 1.8821 135.4 20.2 1313 101
2026 09 07 00  20 14 24.105   +10 05 57.67  1.0264 1.8819 135.4 20.2 1332 101
2026 09 07 01  20 14 19.043   +10 05 24.57  1.0265 1.8816 135.3 20.2 1351 101
2026 09 07 02  20 14 13.986   +10 04 51.44  1.0266 1.8814 135.3 20.2 1370 101
2026 09 07 03  20 14 08.935   +10 04 18.31  1.0267 1.8812 135.2 20.2 1389 101
2026 09 07 04  20 14 03.889   +10 03 45.15  1.0268 1.8810 135.2 20.2 1409 101
2026 09 07 05  20 13 58.848   +10 03 11.98  1.0270 1.8808 135.1 20.2 1428 101
2026 09 07 06  20 13 53.813   +10 02 38.79  1.0271 1.8806 135.1 20.2 1447 101
2026 09 07 07  20 13 48.783   +10 02 05.58  1.0272 1.8804 135.0 20.2 1467 101
2026 09 07 08  20 13 43.758   +10 01 32.35  1.0273 1.8802 135.0 20.2 1486 101
2026 09 07 09  20 13 38.739   +10 00 59.11  1.0274 1.8800 135.0 20.2 1506 101